| time (UTC) | temp C | wind direction | speed KPH | gust KPH | rain 1hr cm | rain 24hr cm | rain mn cm | humidity % | barometer mb |
| 20260502130614 | 5 | 297 | 3.2 | 14.5 | 0.00 | 0.00 | 0.00 | 47 | 1020.4 |
| 20260502123613 | 4 | 134 | 8.0 | 12.9 | 0.00 | 0.00 | 0.00 | 45 | 1020.3 |
| 20260502122622 | 4 | 121 | 6.4 | 12.9 | 0.00 | 0.00 | 0.00 | 47 | 1020.3 |
| 20260502121629 | 4 | 111 | 6.4 | 14.5 | 0.00 | 0.00 | 0.00 | 46 | 1020.3 |
| 20260502120620 | 4 | 128 | 9.7 | 14.5 | 0.00 | 0.00 | 0.00 | 46 | 1020.2 |
| 20260502115622 | 3 | 118 | 8.0 | 16.1 | 0.00 | 0.00 | 0.00 | 47 | 1020.3 |
| 20260502114630 | 3 | 96 | 11.3 | 16.1 | 0.00 | 0.00 | 0.00 | 47 | 1020.3 |
| 20260502113617 | 3 | 109 | 12.9 | 16.1 | 0.00 | 0.00 | 0.00 | 47 | 1020.3 |
| 20260502112629 | 3 | 114 | 9.7 | 14.5 | 0.00 | 0.00 | 0.00 | 48 | 1020.3 |
| 20260502111618 | 4 | 114 | 8.0 | 14.5 | 0.00 | 0.00 | 0.00 | 48 | 1020.3 |
| 20260502110626 | 4 | 118 | 9.7 | 14.5 | 0.00 | 0.00 | 0.00 | 46 | 1020.4 |
| 20260502105628 | 4 | 128 | 9.7 | 16.1 | 0.00 | 0.00 | 0.00 | 46 | 1020.3 |
| 20260502104622 | 4 | 120 | 9.7 | 14.5 | 0.00 | 0.00 | 0.00 | 47 | 1020.3 |
| 20260502103631 | 5 | 130 | 11.3 | 16.1 | 0.00 | 0.00 | 0.00 | 46 | 1020.3 |
| 20260502102622 | 5 | 123 | 8.0 | 12.9 | 0.00 | 0.00 | 0.00 | 46 | 1020.2 |
| 20260502100627 | 5 | 111 | 4.8 | 11.3 | 0.00 | 0.00 | 0.00 | 45 | 1020.2 |
| 20260502090628 | 5 | 126 | 11.3 | 16.1 | 0.00 | 0.00 | 0.00 | 44 | 1020.0 |
| 20260502070624 | 5 | 300 | 4.8 | 6.4 | 0.00 | 0.00 | 0.00 | 48 | 1020.4 |
| 20260502065625 | 5 | 298 | 0.0 | 3.2 | 0.00 | 0.00 | 0.00 | 47 | 1020.3 |
| 20260502064620 | 6 | 298 | 1.6 | 6.4 | 0.00 | 0.00 | 0.00 | 46 | 1020.3 |
| 20260502063629 | 7 | 299 | 1.6 | 14.5 | 0.00 | 0.00 | 0.00 | 42 | 1020.0 |
| 20260502062620 | 7 | 132 | 9.7 | 16.1 | 0.00 | 0.00 | 0.00 | 40 | 1019.8 |
| 20260502061630 | 7 | 113 | 9.7 | 14.5 | 0.00 | 0.00 | 0.00 | 40 | 1019.7 |
| 20260502060628 | 7 | 120 | 4.8 | 16.1 | 0.00 | 0.00 | 0.00 | 39 | 1019.8 |
| 20260502055631 | 7 | 110 | 12.9 | 17.7 | 0.00 | 0.00 | 0.00 | 38 | 1019.6 |
| 20260502054620 | 7 | 132 | 11.3 | 16.1 | 0.00 | 0.00 | 0.00 | 38 | 1019.5 |
| 20260502053628 | 7 | 117 | 12.9 | 16.1 | 0.00 | 0.00 | 0.00 | 38 | 1019.5 |
| 20260502052618 | 7 | 126 | 14.5 | 17.7 | 0.00 | 0.00 | 0.00 | 38 | 1019.5 |
| 20260502051649 | 7 | 110 | 14.5 | 19.3 | 0.00 | 0.00 | 0.00 | 39 | 1019.5 |
| 20260502050617 | 7 | 118 | 11.3 | 17.7 | 0.00 | 0.00 | 0.00 | 39 | 1019.6 |
| 20260502045613 | 7 | 134 | 8.0 | 17.7 | 0.00 | 0.00 | 0.00 | 39 | 1019.6 |
| 20260502044640 | 7 | 131 | 12.9 | 16.1 | 0.00 | 0.00 | 0.00 | 43 | 1019.6 |
| 20260502043613 | 6 | 107 | 0.0 | 4.8 | 0.00 | 0.00 | 0.00 | 48 | 1019.7 |
| 20260502042621 | 6 | 317 | 0.0 | 6.4 | 0.00 | 0.00 | 0.00 | 47 | 1019.7 |
| 20260502041628 | 8 | 319 | 8.0 | 16.1 | 0.00 | 0.00 | 0.00 | 43 | 1019.6 |
| 20260502040617 | 8 | 130 | 11.3 | 17.7 | 0.00 | 0.00 | 0.00 | 35 | 1019.2 |
| 20260502035637 | 9 | 107 | 6.4 | 16.1 | 0.00 | 0.00 | 0.00 | 35 | 1019.1 |
| 20260502034627 | 9 | 115 | 14.5 | 19.3 | 0.00 | 0.00 | 0.00 | 35 | 1018.9 |
| 20260502033616 | 9 | 126 | 12.9 | 17.7 | 0.00 | 0.00 | 0.00 | 34 | 1018.9 |
| 20260502032644 | 9 | 111 | 11.3 | 17.7 | 0.00 | 0.00 | 0.00 | 34 | 1018.8 |
| 20260502031630 | 10 | 131 | 12.9 | 17.7 | 0.00 | 0.00 | 0.00 | 33 | 1018.7 |
| 20260502030623 | 10 | 140 | 12.9 | 16.1 | 0.00 | 0.00 | 0.00 | 33 | 1018.6 |
| 20260502025624 | 10 | 133 | 11.3 | 16.1 | 0.00 | 0.00 | 0.00 | 32 | 1018.5 |
| 20260502024651 | 11 | 134 | 12.9 | 14.5 | 0.00 | 0.00 | 0.00 | 32 | 1018.4 |
| 20260502023619 | 11 | 123 | 11.3 | 12.9 | 0.00 | 0.00 | 0.00 | 33 | 1018.3 |
| 20260502022613 | 11 | 128 | 8.0 | 12.9 | 0.00 | 0.00 | 0.00 | 32 | 1018.3 |
| 20260502021621 | 12 | 295 | 4.8 | 6.4 | 0.00 | 0.00 | 0.00 | 32 | 1018.2 |
| 20260502020629 | 13 | 294 | 0.0 | 0.0 | 0.00 | 0.00 | 0.00 | 31 | 1018.2 |
| 20260502015651 | 14 | 295 | 0.0 | 0.0 | 0.00 | 0.00 | 0.00 | 28 | 1018.2 |
| 20260502014624 | 14 | 295 | 0.0 | 0.0 | 0.00 | 0.00 | 0.00 | 25 | 1018.1 |
| 20260502013612 | 15 | 295 | 0.0 | 0.0 | 0.00 | 0.00 | 0.00 | 25 | 1018.0 |
| 20260502012619 | 15 | 295 | 0.0 | 0.0 | 0.00 | 0.00 | 0.00 | 25 | 1018.1 |
| 20260502011629 | 15 | 295 | 0.0 | 4.8 | 0.00 | 0.00 | 0.00 | 28 | 1018.1 |
| 20260502010641 | 15 | 295 | 3.2 | 8.0 | 0.00 | 0.00 | 0.00 | 27 | 1018.1 |
| 20260502005619 | 15 | 293 | 4.8 | 8.0 | 0.00 | 0.00 | 0.00 | 28 | 1018.1 |
| 20260502004646 | 15 | 303 | 4.8 | 12.9 | 0.00 | 0.00 | 0.00 | 27 | 1018.1 |
| 20260502003613 | 15 | 306 | 8.0 | 12.9 | 0.00 | 0.00 | 0.00 | 22 | 1018.1 |
| 20260502002643 | 15 | 302 | 6.4 | 12.9 | 0.00 | 0.00 | 0.00 | 25 | 1018.1 |
| 20260502001613 | 15 | 307 | 4.8 | 11.3 | 0.00 | 0.00 | 0.00 | 23 | 1018.1 |
| 20260502000621 | 15 | 288 | 6.4 | 12.9 | 0.00 | 0.00 | 0.00 | 21 | 1018.1 |
| 20260501235619 | 15 | 299 | 6.4 | 12.9 | 0.00 | 0.00 | 0.00 | 25 | 1018.2 |
| 20260501234626 | 15 | 308 | 6.4 | 14.5 | 0.00 | 0.00 | 0.00 | 25 | 1018.3 |
| 20260501233619 | 15 | 285 | 6.4 | 12.9 | 0.00 | 0.00 | 0.00 | 27 | 1018.4 |
| 20260501232627 | 15 | 286 | 8.0 | 16.1 | 0.00 | 0.00 | 0.00 | 25 | 1018.3 |
| 20260501231653 | 15 | 322 | 6.4 | 14.5 | 0.00 | 0.00 | 0.00 | 25 | 1018.4 |
| 20260501230622 | 15 | 317 | 6.4 | 14.5 | 0.00 | 0.00 | 0.00 | 25 | 1018.4 |
| 20260501225629 | 15 | 309 | 9.7 | 17.7 | 0.00 | 0.00 | 0.00 | 26 | 1018.6 |
| 20260501224620 | 15 | 300 | 8.0 | 16.1 | 0.00 | 0.00 | 0.00 | 27 | 1018.6 |
| 20260501223629 | 15 | 296 | 6.4 | 16.1 | 0.00 | 0.00 | 0.00 | 25 | 1018.7 |
| 20260501222620 | 15 | 344 | 9.7 | 17.7 | 0.00 | 0.00 | 0.00 | 25 | 1018.8 |
| 20260501221634 | 14 | 311 | 11.3 | 17.7 | 0.00 | 0.00 | 0.00 | 26 | 1018.8 |
| 20260501220620 | 14 | 317 | 9.7 | 17.7 | 0.00 | 0.00 | 0.00 | 26 | 1019.0 |
| 20260501215619 | 14 | 350 | 9.7 | 17.7 | 0.00 | 0.00 | 0.00 | 28 | 1019.1 |
| 20260501214630 | 14 | 290 | 9.7 | 17.7 | 0.00 | 0.00 | 0.00 | 29 | 1019.2 |
| 20260501213623 | 14 | 320 | 9.7 | 22.5 | 0.00 | 0.00 | 0.00 | 29 | 1019.4 |
| 20260501212652 | 14 | 336 | 11.3 | 19.3 | 0.00 | 0.00 | 0.00 | 28 | 1019.5 |
| 20260501211616 | 13 | 294 | 9.7 | 19.3 | 0.00 | 0.00 | 0.00 | 27 | 1019.5 |
| 20260501210623 | 13 | 331 | 14.5 | 24.1 | 0.00 | 0.00 | 0.00 | 31 | 1019.6 |
| 20260501205631 | 13 | 286 | 12.9 | 20.9 | 0.00 | 0.00 | 0.00 | 29 | 1019.7 |
| 20260501204621 | 13 | 294 | 11.3 | 22.5 | 0.00 | 0.00 | 0.00 | 29 | 1019.7 |
| 20260501203630 | 13 | 290 | 11.3 | 19.3 | 0.00 | 0.00 | 0.00 | 28 | 1019.8 |
| 20260501202641 | 13 | 319 | 9.7 | 17.7 | 0.00 | 0.00 | 0.00 | 31 | 1019.7 |
| 20260501201635 | 13 | 340 | 11.3 | 20.9 | 0.00 | 0.00 | 0.00 | 30 | 1019.7 |
| 20260501200643 | 13 | 13 | 11.3 | 20.9 | 0.00 | 0.00 | 0.00 | 32 | 1019.7 |
| 20260501195623 | 13 | 269 | 11.3 | 17.7 | 0.00 | 0.00 | 0.00 | 31 | 1019.8 |
| 20260501194629 | 12 | 309 | 12.9 | 19.3 | 0.00 | 0.00 | 0.00 | 30 | 1019.9 |
| 20260501193618 | 12 | 325 | 12.9 | 17.7 | 0.00 | 0.00 | 0.00 | 31 | 1019.9 |
| 20260501192631 | 12 | 281 | 12.9 | 20.9 | 0.00 | 0.00 | 0.00 | 31 | 1020.0 |
| 20260501191619 | 12 | 331 | 11.3 | 17.7 | 0.00 | 0.00 | 0.00 | 32 | 1020.1 |
| 20260501190630 | 12 | 316 | 14.5 | 19.3 | 0.00 | 0.00 | 0.00 | 34 | 1020.1 |
| 20260501185613 | 12 | 307 | 9.7 | 19.3 | 0.00 | 0.00 | 0.00 | 34 | 1020.1 |
| 20260501184623 | 11 | 292 | 12.9 | 20.9 | 0.00 | 0.00 | 0.00 | 35 | 1020.3 |
| 20260501183613 | 11 | 281 | 9.7 | 16.1 | 0.00 | 0.00 | 0.00 | 36 | 1020.4 |
| 20260501182624 | 11 | 293 | 11.3 | 16.1 | 0.00 | 0.00 | 0.00 | 37 | 1020.4 |
| 20260501181618 | 11 | 309 | 8.0 | 16.1 | 0.00 | 0.00 | 0.00 | 39 | 1020.5 |
| 20260501180617 | 11 | 292 | 8.0 | 16.1 | 0.00 | 0.00 | 0.00 | 39 | 1020.6 |
| 20260501175621 | 10 | 307 | 8.0 | 16.1 | 0.00 | 0.00 | 0.00 | 41 | 1020.7 |
| 20260501174630 | 10 | 297 | 8.0 | 14.5 | 0.00 | 0.00 | 0.00 | 40 | 1020.7 |
| 20260501173620 | 10 | 294 | 8.0 | 17.7 | 0.00 | 0.00 | 0.00 | 40 | 1020.8 |
| 20260501172652 | 10 | 292 | 6.4 | 14.5 | 0.00 | 0.00 | 0.00 | 40 | 1020.8 |
| 20260501171618 | 10 | 295 | 6.4 | 14.5 | 0.00 | 0.00 | 0.00 | 41 | 1020.9 |
| 20260501170626 | 10 | 295 | 6.4 | 16.1 | 0.00 | 0.00 | 0.00 | 41 | 1020.9 |
| 20260501165626 | 9 | 294 | 4.8 | 14.5 | 0.00 | 0.00 | 0.00 | 42 | 1020.9 |
| 20260501164635 | 9 | 288 | 6.4 | 14.5 | 0.00 | 0.00 | 0.00 | 44 | 1020.9 |
| 20260501163622 | 8 | 331 | 8.0 | 14.5 | 0.00 | 0.00 | 0.00 | 44 | 1021.0 |
| 20260501162630 | 8 | 281 | 8.0 | 14.5 | 0.00 | 0.00 | 0.00 | 44 | 1021.0 |
| 20260501161621 | 8 | 302 | 4.8 | 9.7 | 0.00 | 0.00 | 0.00 | 44 | 1021.0 |
| 20260501160636 | 8 | 290 | 6.4 | 11.3 | 0.00 | 0.00 | 0.00 | 46 | 1021.1 |
| 20260501155636 | 8 | 288 | 3.2 | 11.3 | 0.00 | 0.00 | 0.00 | 46 | 1021.1 |
| 20260501154622 | 8 | 288 | 1.6 | 8.0 | 0.00 | 0.00 | 0.00 | 49 | 1021.1 |
| 20260501153631 | 7 | 288 | 0.0 | 8.0 | 0.00 | 0.00 | 0.00 | 50 | 1021.2 |
| 20260501152620 | 7 | 280 | 0.0 | 6.4 | 0.00 | 0.00 | 0.00 | 53 | 1021.1 |
| 20260501151632 | 7 | 317 | 1.6 | 4.8 | 0.00 | 0.00 | 0.00 | 53 | 1021.2 |
| 20260501150620 | 7 | 221 | 0.0 | 1.6 | 0.00 | 0.00 | 0.00 | 52 | 1021.2 |
| 20260501145620 | 6 | 162 | 0.0 | 0.0 | 0.00 | 0.00 | 0.00 | 54 | 1021.3 |
| 20260501143625 | 5 | 144 | 0.0 | 0.0 | 0.00 | 0.00 | 0.00 | 59 | 1021.1 |
| 20260501142615 | 3 | 144 | 0.0 | 0.0 | 0.00 | 0.00 | 0.00 | 61 | 1021.0 |